Temp
-7 -7 -7 -6 -6 -6 -6 -7 -7 -7 -8 -8 -8 -8 -8 -8 -7 -7 -6 -5 -5 -6 -6 -6 -6 -6 -6 -6 -5 -5 -6 -6 -5 -5 -5 -5 -5 -5 -5 -4 -5 -5 -5 -5 -5 -5 -5 -5 -5
-8 -8 -7 -7 -7 -6 -7 -8 -8 -7 -8 -9 -7 -8 -8 -8 -8 -7 -7 -6 -6 -6 -6 -6 -6 -6 -6 -6 -6 -6 -6 -6 -6 -5 -5 -5 -5 -5 -5 -5 -5 -5 -5 -5 -5 -5 -6 -6 -6
-8 -7 -7 -7 -7 -6 -8 -8 -8 -7 -8 -8 -9 -8 -8 -8 -8 -8 -7 -7 -6 -6 -6 -6 -6 -6 -6 -6 -6 -6 -6 -6 -6 -6 -6 -5 -5 -6 -6 -6 -5 -5 -6 -6 -6 -6 -6 -6 -6
-7 -8 -8 -7 -7 -7 -8 -9 -8 -8 -8 -8 -8 -9 -8 -8 -8 -7 -7 -7 -7 -7 -6 -7 -7 -6 -6 -7 -7 -7 -7 -6 -6 -6 -6 -6 -6 -6 -6 -6 -6 -6 -6 -6 -6 -6 -6 -7 -7
-8 -7 -8 -7 -7 -7 -8 -8 -8 -8 -8 -8 -7 -8 -9 -8 -8 -8 -8 -8 -7 -7 -7 -7 -7 -7 -6 -6 -7 -7 -7 -7 -7 -7 -6 -6 -6 -6 -6 -6 -6 -6 -6 -6 -6 -6 -7 -7 -7
-8 -8 -7 -7 -7 -8 -8 -8 -8 -9 -9 -8 -8 -7 -8 -8 -8 -8 -8 -8 -8 -8 -8 -8 -7 -7 -7 -7 -7 -7 -7 -7 -7 -7 -7 -7 -7 -7 -7 -7 -6 -6 -6 -6 -6 -7 -7 -8 -8
-8 -8 -7 -7 -7 -7 -8 -9 -9 -9 -10 -10 -9 -8 -8 -9 -8 -8 -7 -7 -8 -7 -8 -8 -8 -8 -8 -8 -7 -7 -7 -7 -8 -8 -8 -7 -7 -7 -7 -7 -7 -7 -7 -7 -7 -7 -8 -8 -8
-9 -8 -8 -8 -8 -7 -9 -9 -8 -9 -10 -10 -10 -8 -8 -9 -9 -8 -8 -7 -6 -7 -7 -8 -8 -8 -8 -8 -8 -8 -8 -8 -8 -8 -8 -8 -8 -8 -8 -8 -7 -7 -7 -7 -7 -7 -8 -9 -9
-9 -8 -8 -8 -8 -8 -9 -9 -8 -9 -9 -11 -10 -10 -9 -8 -8 -8 -8 -8 -7 -8 -7 -8 -8 -8 -9 -9 -9 -8 -8 -8 -8 -8 -8 -8 -8 -8 -8 -8 -8 -8 -8 -7 -8 -8 -8 -9 -9
-8 -8 -8 -9 -9 -9 -10 -10 -11 -10 -10 -10 -12 -11 -10 -10 -8 -9 -9 -8 -7 -8 -8 -8 -8 -8 -9 -9 -9 -9 -9 -9 -9 -8 -8 -8 -8 -9 -8 -9 -8 -8 -8 -8 -8 -8 -9 -9 -10
-9 -8 -9 -9 -9 -9 -9 -10 -11 -10 -10 -10 -11 -12 -12 -11 -11 -9 -9 -8 -7 -7 -9 -10 -9 -9 -9 -9 -9 -9 -9 -9 -9 -9 -9 -9 -9 -9 -9 -9 -9 -9 -9 -9 -8 -8 -9 -9 -10
-8 -8 -9 -9 -9 -9 -9 -11 -11 -10 -9 -10 -10 -11 -11 -10 -10 -10 -9 -8 -7 -7 -7 -8 -10 -10 -9 -9 -9 -9 -9 -9 -9 -9 -9 -9 -9 -9 -9 -10 -10 -9 -9 -9 -9 -9 -9 -9 -10
-9 -10 -9 -9 -9 -10 -10 -10 -10 -9 -10 -10 -10 -10 -10 -10 -9 -9 -10 -10 -9 -9 -9 -9 -9 -10 -9 -9 -9 -9 -9 -9 -9 -9 -9 -9 -9 -10 -10 -10 -10 -10 -10 -9 -9 -9 -9 -10 -10
-11 -10 -10 -10 -10 -10 -10 -10 -10 -9 -11 -11 -11 -11 -11 -11 -10 -10 -10 -10 -10 -10 -9 -10 -10 -10 -9 -10 -10 -9 -9 -9 -9 -9 -9 -9 -9 -9 -10 -10 -10 -10 -10 -9 -9 -10 -10 -10 -10
-11 -11 -11 -11 -11 -12 -13 -11 -9 -10 -12 -12 -13 -13 -13 -12 -12 -11 -11 -12 -11 -11 -10 -9 -10 -10 -10 -10 -10 -10 -9 -9 -9 -9 -10 -9 -9 -9 -9 -10 -10 -10 -10 -9 -9 -10 -10 -10 -10
-12 -12 -12 -13 -13 -13 -14 -10 -10 -12 -13 -12 -12 -12 -14 -13 -13 -12 -11 -11 -12 -12 -11 -10 -10 -10 -11 -10 -10 -11 -9 -10 -9 -9 -9 -10 -10 -10 -10 -10 -10 -11 -10 -10 -10 -10 -10 -10 -10
-13 -12 -12 -13 -14 -13 -13 -10 -11 -12 -12 -11 -11 -11 -12 -13 -13 -12 -12 -12 -11 -11 -12 -11 -11 -11 -11 -11 -11 -11 -8 -9 -9 -9 -9 -10 -10 -11 -11 -11 -11 -11 -11 -11 -10 -10 -10 -10 -10
-13 -13 -13 -13 -14 -13 -13 -12 -12 -12 -13 -11 -12 -12 -12 -13 -13 -13 -12 -12 -12 -12 -11 -12 -12 -12 -12 -12 -11 -10 -10 -9 -9 -9 -9 -9 -10 -11 -11 -11 -11 -11 -11 -11 -11 -10 -9 -9 -9
-13 -13 -13 -13 -13 -13 -13 -13 -13 -14 -12 -12 -12 -12 -12 -12 -12 -13 -13 -13 -12 -12 -12 -12 -12 -12 -12 -13 -11 -11 -11 -11 -10 -9 -9 -9 -9 -10 -11 -11 -11 -12 -11 -11 -11 -10 -9 -8 -8
-13 -13 -13 -13 -14 -14 -14 -13 -14 -15 -15 -13 -13 -13 -13 -14 -14 -13 -14 -13 -13 -12 -12 -12 -12 -12 -13 -14 -13 -12 -12 -12 -11 -10 -8 -9 -9 -9 -10 -11 -11 -11 -12 -11 -11 -10 -10 -9 -9
-13 -13 -13 -14 -14 -14 -14 -13 -14 -14 -14 -15 -14 -14 -14 -14 -15 -15 -14 -14 -14 -13 -12 -13 -12 -13 -12 -13 -13 -13 -13 -12 -12 -10 -11 -10 -8 -10 -10 -10 -11 -11 -11 -12 -11 -11 -10 -10 -10
-14 -14 -14 -14 -14 -14 -14 -12 -13 -14 -15 -16 -16 -16 -16 -16 -16 -15 -15 -14 -13 -14 -14 -13 -13 -13 -14 -13 -13 -14 -14 -13 -12 -12 -11 -11 -10 -10 -11 -10 -10 -9 -10 -11 -11 -11 -10 -9 -10
-14 -15 -14 -15 -15 -14 -14 -13 -12 -14 -14 -15 -15 -15 -15 -15 -15 -15 -16 -15 -14 -14 -13 -14 -14 -14 -14 -14 -13 -14 -14 -14 -13 -13 -12 -11 -11 -11 -11 -10 -10 -10 -10 -11 -10 -11 -9 -10 -10
-16 -15 -15 -15 -14 -13 -14 -14 -12 -15 -16 -16 -16 -16 -16 -15 -15 -15 -15 -15 -14 -14 -14 -15 -14 -14 -14 -14 -15 -14 -14 -14 -14 -14 -12 -13 -12 -12 -11 -11 -11 -11 -10 -10 -10 -10 -10 -9 -10
-16 -16 -16 -15 -15 -14 -16 -15 -14 -16 -17 -17 -17 -16 -17 -17 -17 -16 -16 -16 -15 -16 -16 -16 -15 -15 -15 -15 -15 -14 -14 -14 -14 -14 -13 -13 -13 -12 -11 -11 -12 -12 -11 -10 -10 -10 -10 -10 -9
-16 -17 -17 -16 -15 -15 -16 -16 -16 -16 -17 -18 -18 -17 -17 -17 -16 -16 -17 -17 -17 -17 -17 -16 -17 -16 -15 -15 -15 -14 -14 -14 -14 -14 -14 -13 -13 -13 -13 -11 -11 -11 -12 -11 -10 -10 -10 -10 -10
-17 -17 -17 -17 -18 -17 -17 -17 -17 -17 -17 -18 -18 -18 -18 -17 -17 -18 -17 -17 -18 -17 -17 -17 -17 -17 -16 -16 -15 -15 -15 -14 -14 -14 -14 -14 -14 -14 -12 -12 -11 -12 -13 -12 -11 -11 -10 -10 -10
-17 -17 -17 -18 -18 -18 -18 -18 -18 -17 -18 -18 -18 -18 -19 -18 -18 -17 -17 -17 -18 -18 -18 -18 -17 -16 -17 -17 -16 -15 -15 -15 -14 -14 -14 -14 -14 -13 -12 -12 -12 -13 -12 -11 -11 -10 -11 -10 -11
-17 -18 -18 -18 -19 -19 -19 -19 -20 -20 -19 -18 -19 -19 -19 -19 -19 -18 -18 -18 -18 -17 -17 -16 -16 -15 -16 -16 -16 -16 -15 -15 -15 -14 -14 -14 -14 -14 -14 -13 -12 -12 -12 -12 -12 -11 -11 -11 -11
-18 -18 -19 -20 -20 -21 -21 -20 -20 -20 -20 -19 -20 -19 -19 -19 -19 -19 -18 -19 -18 -17 -17 -17 -17 -16 -17 -17 -16 -16 -16 -15 -15 -15 -14 -14 -14 -14 -14 -15 -14 -12 -12 -11 -11 -12 -11 -11 -11
Height
5875 5879 5880 5884 5891 5892 5899 5900 5892 5895 5899 5896 5897 5899 5900 5902 5906 5912 5911 5911 5913 5913 5913 5913 5913 5914 5915 5916 5916 5916 5917 5917 5918 5917 5917 5917 5916 5915 5914 5911 5910 5909 5908 5906 5904 5903 5902 5900 5899
5871 5873 5876 5877 5883 5888 5896 5892 5891 5892 5894 5892 5890 5893 5897 5899 5901 5904 5908 5909 5910 5910 5910 5911 5912 5913 5914 5915 5916 5917 5917 5916 5917 5917 5917 5917 5917 5916 5915 5913 5911 5910 5908 5907 5905 5903 5903 5901 5899
5866 5867 5870 5871 5876 5883 5891 5886 5887 5889 5889 5889 5884 5886 5890 5895 5897 5897 5902 5906 5906 5908 5908 5909 5910 5911 5912 5913 5915 5916 5917 5917 5917 5917 5916 5917 5917 5916 5915 5914 5913 5911 5909 5908 5906 5904 5902 5901 5899
5858 5862 5862 5864 5872 5879 5882 5881 5880 5884 5884 5885 5882 5880 5885 5885 5890 5890 5897 5901 5903 5902 5906 5906 5907 5909 5910 5911 5912 5914 5915 5915 5916 5916 5916 5916 5915 5915 5916 5915 5914 5912 5911 5909 5907 5905 5903 5902 5900
5850 5853 5854 5858 5865 5874 5874 5871 5870 5873 5878 5880 5879 5876 5876 5879 5879 5882 5889 5896 5899 5899 5901 5905 5905 5905 5906 5907 5909 5911 5912 5913 5914 5914 5914 5915 5915 5914 5914 5914 5914 5912 5911 5908 5907 5904 5903 5900 5898
5842 5844 5848 5851 5857 5864 5866 5864 5861 5865 5869 5869 5870 5871 5871 5871 5873 5873 5880 5888 5896 5898 5897 5900 5901 5901 5902 5904 5906 5908 5909 5910 5911 5911 5912 5913 5912 5913 5914 5914 5913 5912 5910 5908 5907 5904 5902 5900 5896
5835 5838 5842 5844 5849 5853 5861 5855 5858 5858 5864 5865 5866 5865 5864 5865 5867 5870 5868 5880 5889 5892 5895 5895 5896 5897 5897 5899 5901 5904 5906 5907 5908 5908 5908 5909 5909 5909 5910 5912 5912 5910 5909 5908 5907 5904 5902 5899 5896
5829 5829 5833 5837 5841 5847 5852 5849 5851 5852 5854 5851 5854 5856 5859 5859 5860 5861 5868 5870 5883 5888 5889 5890 5892 5892 5893 5895 5897 5899 5901 5903 5904 5905 5905 5905 5906 5907 5908 5909 5909 5909 5908 5907 5906 5904 5901 5898 5894
5822 5824 5829 5833 5834 5841 5840 5840 5842 5840 5843 5846 5853 5852 5851 5856 5856 5855 5858 5865 5869 5883 5885 5885 5886 5887 5888 5890 5893 5894 5896 5898 5899 5901 5902 5902 5902 5902 5904 5906 5906 5906 5905 5905 5905 5903 5900 5897 5895
5815 5818 5822 5825 5825 5829 5832 5829 5832 5833 5834 5836 5839 5845 5842 5846 5850 5852 5847 5853 5863 5874 5876 5878 5879 5880 5882 5884 5887 5890 5892 5894 5895 5896 5898 5898 5898 5899 5900 5901 5902 5902 5902 5903 5902 5900 5899 5897 5893
5809 5813 5813 5816 5818 5819 5825 5822 5823 5824 5827 5828 5831 5834 5836 5836 5839 5845 5845 5844 5852 5862 5867 5866 5870 5872 5874 5877 5880 5883 5886 5888 5890 5892 5893 5893 5894 5895 5896 5896 5897 5898 5898 5899 5899 5898 5898 5897 5892
5803 5804 5805 5808 5809 5810 5814 5818 5817 5817 5820 5820 5821 5823 5826 5825 5831 5833 5838 5837 5840 5849 5851 5854 5859 5863 5866 5870 5873 5876 5879 5881 5884 5886 5887 5889 5889 5889 5890 5891 5893 5894 5895 5896 5896 5895 5894 5893 5890
5795 5797 5798 5799 5800 5801 5802 5806 5811 5814 5812 5811 5812 5814 5816 5819 5820 5824 5827 5830 5832 5836 5839 5843 5846 5853 5858 5862 5864 5867 5871 5875 5878 5879 5881 5883 5884 5885 5885 5886 5888 5889 5890 5891 5891 5891 5890 5888 5886
5787 5789 5792 5794 5795 5795 5795 5798 5802 5814 5808 5805 5806 5807 5806 5808 5809 5815 5816 5821 5825 5826 5830 5830 5835 5839 5846 5851 5854 5858 5861 5865 5867 5871 5874 5876 5878 5878 5881 5881 5883 5884 5884 5887 5886 5886 5885 5884 5882
5779 5781 5783 5785 5785 5785 5783 5787 5794 5798 5796 5798 5800 5800 5799 5799 5798 5799 5807 5807 5815 5817 5819 5822 5824 5828 5832 5836 5842 5845 5849 5849 5854 5861 5864 5868 5870 5873 5874 5875 5876 5876 5877 5881 5881 5881 5880 5879 5879
5771 5773 5776 5778 5773 5775 5772 5779 5785 5784 5779 5785 5790 5789 5790 5789 5790 5789 5795 5801 5801 5805 5810 5812 5813 5813 5820 5824 5829 5833 5837 5839 5841 5846 5850 5856 5863 5865 5869 5868 5870 5869 5869 5874 5875 5874 5873 5873 5875
5765 5766 5766 5768 5764 5762 5760 5770 5772 5768 5767 5771 5776 5781 5781 5780 5779 5782 5781 5787 5788 5794 5799 5801 5801 5800 5804 5811 5815 5818 5823 5826 5833 5836 5838 5841 5851 5855 5860 5861 5862 5861 5861 5864 5867 5868 5867 5868 5868
5759 5757 5758 5758 5757 5754 5755 5760 5761 5760 5760 5763 5763 5766 5768 5770 5769 5769 5771 5774 5775 5777 5789 5790 5790 5790 5790 5795 5801 5806 5809 5813 5820 5823 5827 5829 5836 5839 5845 5849 5849 5850 5851 5855 5858 5860 5861 5862 5862
5750 5749 5749 5750 5750 5749 5748 5750 5751 5746 5749 5751 5751 5752 5754 5756 5756 5757 5759 5762 5765 5767 5773 5779 5780 5778 5779 5780 5785 5792 5796 5801 5809 5810 5813 5817 5818 5823 5831 5837 5837 5840 5844 5846 5848 5849 5853 5854 5854
5742 5741 5742 5742 5742 5740 5739 5737 5738 5737 5737 5740 5742 5742 5743 5744 5745 5745 5745 5747 5752 5757 5760 5765 5769 5769 5769 5771 5773 5778 5783 5787 5792 5800 5797 5804 5804 5807 5816 5823 5825 5828 5833 5836 5839 5841 5844 5845 5846
5734 5733 5733 5731 5731 5729 5727 5726 5729 5730 5730 5731 5730 5731 5732 5734 5736 5733 5733 5736 5738 5743 5748 5750 5754 5757 5758 5760 5762 5764 5770 5774 5777 5784 5789 5794 5795 5796 5804 5807 5811 5814 5820 5826 5827 5832 5833 5837 5837
5725 5727 5723 5721 5718 5716 5718 5711 5720 5723 5722 5721 5720 5720 5719 5719 5719 5719 5720 5723 5727 5729 5734 5737 5740 5743 5743 5746 5749 5754 5757 5760 5764 5767 5772 5779 5781 5788 5792 5794 5796 5800 5807 5812 5815 5819 5822 5827 5830
5717 5716 5713 5711 5708 5705 5704 5704 5708 5709 5709 5710 5709 5707 5704 5705 5706 5706 5707 5712 5716 5717 5723 5727 5728 5729 5732 5733 5735 5738 5742 5746 5748 5754 5759 5760 5769 5773 5779 5784 5786 5793 5792 5797 5802 5806 5811 5815 5820
5706 5703 5701 5698 5696 5692 5695 5694 5693 5698 5697 5696 5694 5692 5691 5690 5692 5693 5696 5698 5702 5705 5708 5711 5715 5716 5720 5722 5724 5726 5727 5731 5735 5739 5745 5748 5750 5757 5765 5768 5776 5779 5781 5783 5787 5792 5797 5804 5806
5698 5695 5690 5688 5686 5682 5686 5680 5680 5684 5687 5682 5682 5682 5680 5680 5680 5680 5683 5686 5690 5692 5695 5696 5700 5703 5704 5706 5708 5711 5714 5718 5723 5726 5730 5734 5739 5742 5745 5748 5756 5761 5765 5774 5778 5782 5788 5791 5796
5687 5688 5684 5674 5675 5672 5674 5666 5672 5675 5672 5669 5669 5670 5667 5668 5669 5668 5673 5676 5679 5681 5684 5685 5686 5687 5690 5692 5694 5697 5701 5705 5709 5714 5717 5720 5724 5728 5730 5736 5739 5742 5748 5757 5761 5770 5774 5781 5786
5681 5677 5676 5669 5665 5657 5657 5657 5659 5662 5660 5657 5655 5657 5658 5658 5658 5658 5659 5660 5664 5668 5674 5676 5675 5675 5676 5679 5682 5687 5690 5693 5696 5700 5703 5707 5710 5714 5718 5722 5724 5728 5736 5743 5747 5754 5760 5767 5772
5670 5669 5666 5661 5654 5647 5643 5643 5646 5651 5649 5645 5645 5645 5647 5648 5647 5648 5652 5653 5653 5655 5662 5665 5666 5667 5668 5669 5669 5671 5676 5681 5684 5687 5691 5695 5698 5702 5704 5707 5710 5714 5722 5729 5735 5739 5745 5754 5760
5663 5658 5654 5651 5644 5636 5631 5631 5636 5634 5634 5635 5633 5637 5636 5636 5636 5638 5641 5641 5645 5649 5651 5654 5656 5656 5656 5658 5660 5660 5662 5666 5671 5675 5678 5682 5686 5689 5691 5693 5699 5703 5709 5716 5722 5730 5733 5740 5747
5650 5645 5643 5638 5633 5626 5621 5614 5624 5624 5623 5626 5623 5623 5623 5627 5629 5630 5629 5631 5634 5638 5639 5640 5642 5643 5642 5643 5647 5650 5651 5654 5658 5662 5665 5668 5672 5676 5681 5683 5688 5690 5694 5703 5711 5721 5722 5725 5735
Wind_Speed
38 36 34 35 33 29 20 20 32 31 27 23 19 16 28 29 30 25 21 21 21 14 15 13 13 10 10 11 10 6 5 4 4 4 5 7 8 6 6 6 8 9 9 9 11 11 11 12 13
40 40 37 37 37 33 22 28 33 34 31 21 27 22 27 31 30 30 27 26 21 15 15 16 17 14 13 13 13 11 7 5 5 6 7 8 8 8 6 5 7 9 10 9 9 9 10 12 15
43 44 43 41 38 35 26 34 35 37 35 30 27 31 31 33 36 40 37 33 28 27 24 20 20 20 16 16 15 14 13 12 9 8 8 9 9 8 6 4 4 8 8 8 6 6 8 12 15
47 44 48 45 40 32 32 37 38 41 41 38 36 37 36 36 37 46 43 36 35 34 31 24 23 22 21 17 16 16 15 15 13 12 11 10 9 9 8 6 3 7 7 9 8 8 10 13 14
41 47 49 48 45 35 34 40 46 46 46 42 46 44 44 43 44 45 45 44 37 35 31 30 27 25 24 21 19 18 16 15 14 14 15 15 13 12 10 9 6 6 5 8 9 9 11 13 16
42 42 46 48 45 41 40 45 53 49 45 50 49 51 52 53 50 51 52 48 44 38 40 36 33 29 27 25 22 21 19 16 16 18 17 17 16 16 15 12 9 7 6 6 8 10 11 13 15
38 41 42 43 41 42 42 47 46 51 47 40 47 54 54 53 58 58 58 51 49 47 46 46 37 32 31 29 28 25 23 20 19 19 20 18 18 17 16 15 13 11 9 7 6 8 9 12 14
31 37 40 43 40 37 33 43 47 44 50 52 46 57 60 56 57 60 57 58 53 48 43 46 43 37 34 33 32 30 27 23 22 20 19 19 17 17 15 14 14 14 13 9 7 6 9 9 13
34 33 28 26 31 29 34 41 45 48 45 47 52 45 54 60 58 58 58 55 49 44 45 47 47 44 39 37 37 34 32 28 27 24 19 20 19 17 16 15 16 15 15 13 11 7 7 10 13
34 32 30 29 31 30 28 36 40 46 48 45 38 42 56 57 55 55 56 54 50 39 37 43 51 48 45 42 41 39 36 33 30 29 25 21 20 20 18 18 18 17 17 15 13 12 11 10 13
36 35 34 34 35 36 32 36 40 44 48 49 46 37 46 50 55 58 60 63 56 43 40 40 48 56 50 47 45 44 40 38 35 32 30 28 24 21 22 22 21 20 19 16 16 15 14 10 12
39 40 40 36 36 37 38 35 41 44 45 47 50 51 48 53 48 47 49 55 55 42 42 39 39 48 54 52 48 47 45 43 40 37 35 33 30 26 25 25 24 23 22 20 18 19 16 12 14
34 35 39 41 41 41 39 40 41 41 46 48 49 50 51 52 52 50 45 43 42 38 37 40 43 47 55 57 54 53 51 48 46 44 40 36 35 32 30 28 26 26 25 22 22 23 21 13 14
33 36 36 37 39 41 43 42 42 37 40 45 48 48 52 54 53 47 47 42 37 37 35 42 47 49 52 59 57 58 58 54 54 49 47 44 40 38 34 33 31 30 30 25 26 27 26 20 15
31 33 32 31 32 33 36 41 42 37 35 37 41 45 50 52 54 55 46 47 43 41 41 42 45 54 54 56 61 61 65 60 60 52 51 46 46 43 40 36 36 36 35 30 30 31 30 26 19
25 27 28 26 31 30 32 42 38 37 41 42 42 45 53 56 56 56 51 48 48 44 42 43 46 54 59 59 57 60 63 68 57 60 56 49 49 44 45 39 40 41 41 36 34 35 34 31 24
25 25 26 26 30 37 40 43 42 44 45 47 47 45 44 49 56 54 56 48 52 47 40 39 45 53 56 63 62 64 57 69 66 61 63 50 57 47 51 45 43 46 47 42 40 40 39 36 32
29 31 30 30 33 38 40 38 40 44 45 48 48 49 49 48 51 53 54 53 54 54 37 38 41 52 58 56 67 67 72 64 64 68 72 68 58 53 57 50 49 50 51 50 46 45 40 37 33
32 33 34 33 35 36 38 35 36 41 40 42 44 47 48 49 51 50 52 52 52 53 45 41 41 46 59 61 61 71 73 82 73 65 71 69 55 62 62 56 55 54 53 54 53 50 42 41 39
31 32 32 33 33 35 36 40 40 41 45 43 42 42 42 43 42 45 48 50 48 48 50 46 42 45 52 57 63 62 72 78 75 66 52 73 64 59 65 61 61 59 56 58 56 54 53 43 43
35 34 32 33 33 36 39 42 41 43 44 45 47 46 45 44 42 48 51 50 50 48 45 45 44 43 45 51 61 59 64 73 82 80 73 61 55 68 74 76 68 63 61 61 60 59 58 50 42
35 32 35 36 39 43 40 47 40 36 38 50 56 58 52 45 46 44 46 51 51 52 47 46 46 44 48 50 51 61 66 62 74 84 81 83 67 81 75 78 69 67 67 67 61 65 60 53 49
38 36 38 39 40 44 46 47 43 39 39 39 42 45 49 49 49 47 44 43 45 51 48 47 49 49 46 52 55 55 62 63 55 78 89 88 88 65 70 78 73 79 73 75 67 69 67 61 51
39 40 40 43 45 50 46 46 45 37 35 35 37 39 42 46 45 45 47 42 44 44 45 40 44 49 46 43 49 56 61 66 67 63 67 80 81 73 71 59 73 68 81 78 86 73 62 53 52
41 43 48 49 47 51 45 49 48 41 38 42 39 33 37 40 39 41 42 44 40 40 34 36 37 42 46 47 51 53 57 63 69 63 61 60 68 85 77 77 72 68 63 71 76 70 68 57 53
41 40 41 47 49 53 51 56 50 40 43 44 41 33 39 34 41 36 43 41 43 45 35 33 37 38 42 47 52 52 52 54 56 61 62 62 59 62 65 70 82 89 78 63 62 70 77 65 67
41 45 45 50 55 58 58 57 54 39 41 43 46 35 41 39 35 38 46 38 42 49 41 39 41 43 41 41 49 52 52 52 52 53 55 60 61 55 61 73 63 70 81 69 76 79 67 66 63
41 41 42 50 57 59 63 64 61 54 51 41 35 39 41 43 48 49 45 40 41 34 35 44 45 44 42 40 44 47 47 52 54 55 55 54 57 59 59 62 59 64 61 78 59 65 71 68 58
33 38 43 48 52 57 61 60 54 47 39 39 34 29 34 39 41 41 42 41 34 42 39 40 39 41 43 40 39 47 48 47 51 54 54 55 51 50 47 49 62 63 69 75 77 74 56 64 57
36 42 43 47 53 56 53 54 39 50 39 37 24 33 30 39 39 39 46 40 38 43 45 44 43 43 34 34 35 37 43 44 44 46 50 52 52 47 43 39 38 44 53 69 72 56 50 61 43
Wind_Direction
232 232 229 232 231 233 215 199 193 187 195 207 211 237 256 260 268 260 256 262 268 253 256 272 267 256 260 274 275 277 295 317 323 330 324 321 313 308 321 349 22 29 27 34 36 34 31 32 28
240 238 234 230 228 225 210 214 207 197 197 216 217 227 233 241 252 250 249 258 260 272 258 267 272 263 263 268 279 276 277 282 288 293 297 301 304 305 312 348 29 33 27 23 31 39 33 32 32
242 238 241 236 230 224 204 221 216 207 202 201 234 229 234 233 239 248 247 248 258 268 262 260 264 260 261 269 273 278 283 292 290 289 296 295 295 298 295 329 18 28 21 24 23 21 29 34 30
242 240 239 241 237 230 211 215 223 215 210 209 220 235 235 234 234 243 244 240 248 258 262 257 261 261 263 263 266 271 284 287 291 291 293 286 285 294 298 301 331 3 13 17 12 29 31 35 31
239 240 239 240 242 234 227 206 220 222 216 216 217 232 235 235 235 236 241 242 243 245 256 257 254 255 256 256 257 260 267 276 283 287 295 291 283 286 284 283 289 337 357 20 31 34 33 31 15
240 240 242 240 242 239 234 227 216 217 216 219 223 225 235 236 236 240 239 239 239 243 257 253 249 250 250 253 253 255 257 267 269 272 278 280 281 285 285 285 279 294 323 3 32 33 32 23 20
243 240 243 245 242 241 236 244 245 217 217 223 230 228 236 242 242 239 245 241 239 244 252 256 248 245 246 247 250 250 254 258 267 272 277 280 282 279 277 282 284 280 295 321 23 27 20 23 15
243 243 240 242 242 239 234 243 249 246 233 215 220 232 231 240 245 248 246 253 251 243 248 243 247 244 245 246 247 249 248 254 260 266 272 270 273 278 276 277 283 284 288 302 320 11 19 16 14
242 243 246 246 244 238 234 237 239 249 242 227 236 230 239 238 244 250 253 251 253 247 245 241 242 244 245 245 247 249 252 253 256 264 269 263 265 269 272 276 280 282 282 290 304 297 341 3 11
247 246 245 245 242 237 228 235 238 241 244 240 226 225 242 248 248 244 254 258 253 240 238 244 244 242 242 244 246 249 252 256 257 260 262 261 261 264 266 268 271 277 279 283 290 294 294 337 354
248 247 246 243 243 244 235 238 231 242 243 245 242 233 232 242 244 251 255 261 262 261 245 251 240 245 242 241 243 244 250 254 255 258 261 262 263 265 264 264 268 271 272 275 280 286 291 327 326
246 246 247 248 247 246 243 230 234 243 247 247 248 248 247 255 249 250 255 263 269 264 255 239 237 242 246 242 243 244 247 250 252 254 256 261 263 261 258 261 264 267 272 277 277 283 290 295 302
254 251 248 246 247 249 248 244 237 246 251 251 252 254 257 258 262 261 257 256 261 261 257 243 223 231 242 244 244 242 243 250 251 252 254 253 258 261 264 261 265 266 267 274 277 281 282 286 307
254 253 253 253 254 254 256 255 253 245 249 255 257 262 263 264 266 266 268 263 260 260 255 249 228 227 227 240 244 244 242 244 244 249 254 254 256 260 262 267 266 267 268 270 274 277 281 282 285
254 253 253 256 260 262 265 253 252 250 245 242 251 257 261 263 264 266 261 267 264 261 257 250 251 233 228 227 237 240 242 231 238 237 246 250 257 259 264 261 261 261 264 269 270 269 275 280 282
260 260 256 255 256 253 255 250 249 253 256 248 244 242 244 253 259 265 263 257 260 260 256 256 250 244 234 230 228 237 242 249 234 241 230 238 248 248 256 252 255 256 259 261 271 270 273 277 279
267 259 256 246 250 251 251 256 250 244 246 251 252 247 248 248 253 258 264 262 262 258 254 254 251 249 243 234 233 232 232 242 246 245 244 228 241 241 246 244 245 249 255 256 262 264 267 271 272
265 266 260 253 245 253 253 264 264 259 256 259 254 254 250 248 255 257 260 260 262 264 255 251 247 244 246 242 235 232 238 232 239 245 249 250 237 234 240 239 240 244 251 255 255 258 264 271 278
260 260 263 265 265 264 262 267 261 262 258 254 254 250 251 253 251 251 256 257 256 260 258 249 246 245 241 244 239 235 236 239 232 239 243 244 233 239 231 237 241 241 247 253 258 259 261 267 274
263 263 263 264 264 267 264 261 261 257 263 268 267 267 267 266 263 259 258 259 257 253 255 254 247 244 243 242 247 243 241 235 235 237 243 246 238 243 237 232 239 242 244 248 253 260 260 268 273
268 270 271 271 263 261 264 265 265 265 267 270 272 273 271 270 270 269 259 254 256 256 252 254 250 245 242 241 241 248 248 241 236 236 236 242 241 234 246 247 233 238 241 247 250 253 260 264 262
275 278 276 274 272 273 267 271 265 267 264 258 262 271 274 269 263 261 262 256 252 253 251 251 252 248 239 240 243 240 247 251 244 236 236 239 241 245 243 243 231 245 245 242 244 251 260 261 267
273 273 272 273 272 274 274 277 282 277 270 269 264 263 262 261 259 257 254 256 255 254 251 243 247 248 248 243 239 241 240 245 250 240 239 239 242 251 246 241 249 250 240 240 243 248 257 257 262
271 268 268 271 276 277 284 285 275 281 290 286 282 276 269 268 263 258 254 250 252 253 256 256 244 246 248 250 244 246 244 241 246 248 247 242 249 246 245 246 246 258 244 239 248 243 260 259 259
270 271 273 271 269 280 283 280 280 292 290 292 283 265 260 259 259 250 249 244 249 253 258 260 254 249 245 240 239 241 244 243 244 249 254 255 253 251 246 249 250 257 256 247 254 255 254 255 266
278 273 269 277 278 280 279 277 286 284 284 281 271 273 267 271 266 243 240 249 256 262 262 260 274 270 258 240 240 244 246 246 246 246 249 253 256 256 254 257 262 258 260 262 251 258 257 259 264
274 271 269 267 270 275 281 282 284 277 276 273 265 274 270 268 265 278 236 226 233 246 253 267 270 271 267 261 242 242 246 248 251 248 250 250 254 259 258 257 263 258 255 259 264 262 254 259 265
273 275 272 270 272 273 275 278 279 276 281 277 271 261 256 263 265 268 271 254 241 248 255 258 261 262 259 254 255 252 244 243 246 247 250 250 253 255 260 254 259 259 249 256 258 263 261 259 262
271 267 271 275 274 276 282 283 283 282 275 280 276 266 259 263 261 258 262 264 262 255 253 251 250 254 250 244 240 248 249 247 245 246 248 249 252 253 259 253 252 255 248 247 253 264 258 250 256
287 284 278 275 275 277 276 275 268 277 279 272 267 267 253 257 252 254 254 255 261 253 266 264 268 258 250 252 246 243 246 246 246 248 248 249 249 250 249 247 249 252 252 251 250 248 252 248 242